Weather History for Fort Benning, GA

Change the Weather History Date:

Sunday, January 6, 2013

  Actual Average Record
Temperature  
Mean Temperature 45 °F -  
Max Temperature 53 °F 57 °F 76 °F (2009)
Min Temperature 36 °F 32 °F 17 °F (1999)
Degree Days  
Heating Degree Days 20    
Moisture  
Dew Point 41 °F    
Average Humidity 82    
Maximum Humidity 100    
Minimum Humidity 62    
Precipitation  
Precipitation 0.01 in - - ()
Sea Level Pressure  
Sea Level Pressure 30.24 in    
Wind  
Wind Speed 3 mph (NW)    
Max Wind Speed 8 mph    
Max Gust Speed -    
Visibility 10 miles    
Events Rain    
Averages and records for this station are not official NWS values.
T = Trace of Precipitation, MM = Missing Value Source: NWS Daily Summary

Daily Weather History Graph

Daily Weather History Graph

Search for Another Location

Airport:

Trip Planner

Search our weather history database for the weather conditions in past years. The results will help you decide how hot, cold, wet, or windy it might be!

Date:

Astronomy

Jan. 06, 2013 Rise Set
Actual Time 7:42 AM EST 5:50 PM EST
Civil Twilight 7:15 AM EST 6:16 PM EST
Nautical Twilight 6:44 AM EST 6:47 PM EST
Astronomical Twilight 6:14 AM EST 7:17 PM EST
Moon 2:03 AM EST (1/6) 1:10 PM EST (1/6)
Length of Visible Light 11h 01m
Length of Day
10h 08m
Waning Crescent, 33% of the Moon is Illuminated
Jan 6
Waning Crescent
Jan 11
New
Jan 18
First Quarter
Jan 26
Full
Feb 3
Last Quarter

Hourly Weather History & Observations

Time (EST) Temp. Windchill Dew Point Humidity Pressure Visibility Wind Dir Wind Speed Gust Speed Precip Events Conditions
12:36 AM 46.4 °F - 39.2 °F 76% 30.26 in 10.0 mi Calm Calm - N/A   Light Drizzle
12:45 AM 46.4 °F 44.3 °F 39.2 °F 76% 30.25 in 10.0 mi SSE 4.6 mph - N/A   Overcast
12:55 AM 46.6 °F - 39.0 °F 75% 30.26 in 10.0 mi Calm Calm - 0.00 in   Overcast
1:55 AM 46.4 °F - 39.6 °F 77% 30.26 in 10.0 mi Calm Calm - N/A   Overcast
2:55 AM 47.7 °F - 37.6 °F 68% 30.25 in 10.0 mi NNW 5.8 mph - N/A   Overcast
3:47 AM 46.4 °F 43.5 °F 39.2 °F 76% 30.25 in 10.0 mi NNW 5.8 mph - N/A Rain Light Rain
3:55 AM 46.4 °F 42.9 °F 40.1 °F 79% 30.24 in 10.0 mi North 6.9 mph - 0.00 in Rain Light Rain
4:02 AM 46.4 °F 42.9 °F 41.0 °F 81% 30.24 in 10.0 mi North 6.9 mph - N/A   Overcast
4:55 AM 46.4 °F - 39.0 °F 75% 30.24 in 10.0 mi Calm Calm - 0.00 in   Overcast
5:30 AM 46.4 °F 43.5 °F 39.2 °F 76% 30.24 in 10.0 mi NW 5.8 mph - N/A Rain Light Rain
5:55 AM 45.1 °F 42.0 °F 41.4 °F 87% 30.24 in 10.0 mi NNW 5.8 mph - 0.00 in Rain Light Rain
6:19 AM 44.6 °F 41.4 °F 41.0 °F 87% 30.25 in 10.0 mi NNW 5.8 mph - N/A   Overcast
6:26 AM 44.6 °F 43.1 °F 41.0 °F 87% 30.25 in 10.0 mi WNW 3.5 mph - N/A   Light Drizzle
6:55 AM 43.7 °F - 41.0 °F 90% 30.25 in 10.0 mi Calm Calm - 0.01 in Rain Light Rain
7:26 AM 42.8 °F - 42.8 °F 100% 30.26 in 10.0 mi Calm Calm - N/A   Light Drizzle
7:27 AM 42.8 °F - 42.8 °F 100% 30.26 in 10.0 mi Calm Calm - N/A   Light Drizzle
7:28 AM 42.8 °F - 42.8 °F 100% 30.26 in 10.0 mi Calm Calm - N/A   Overcast
8:25 AM 44.6 °F 42.2 °F 42.8 °F 93% 30.27 in 10.0 mi NW 4.6 mph - N/A   Overcast
8:28 AM 44.6 °F 42.2 °F 42.8 °F 93% 30.27 in 10.0 mi NW 4.6 mph - N/A   Overcast
8:34 AM 44.6 °F 42.2 °F 42.8 °F 93% 30.27 in 10.0 mi WNW 4.6 mph - N/A   Overcast
8:47 AM 44.6 °F - 41.0 °F 87% 30.27 in 10.0 mi Calm Calm - N/A   Overcast
8:55 AM 44.2 °F - 41.2 °F 89% 30.27 in 10.0 mi Calm Calm - N/A   Overcast
9:14 AM 44.6 °F 41.4 °F 42.8 °F 93% 30.27 in 10.0 mi SSE 5.8 mph - N/A   Overcast
9:55 AM 46.0 °F - 41.9 °F 85% 30.27 in 10.0 mi Calm Calm - N/A   Overcast
10:55 AM 48.2 °F - 38.8 °F 70% 30.27 in 10.0 mi North 4.6 mph - N/A   Overcast
10:59 AM 48.2 °F - 37.4 °F 66% 30.27 in 10.0 mi NNW 4.6 mph - N/A   Overcast
11:55 AM 50.9 °F - 38.8 °F 63% 30.25 in 10.0 mi NNW 3.5 mph - N/A   Overcast
12:55 PM 52.3 °F - 39.7 °F 62% 30.22 in 10.0 mi NW 5.8 mph - N/A   Overcast
1:55 PM 52.2 °F - 41.2 °F 66% 30.18 in 10.0 mi NW 3.5 mph - N/A   Overcast
2:14 PM 51.8 °F - 42.8 °F 71% 30.18 in 10.0 mi NNW 5.8 mph - N/A   Light Drizzle
2:38 PM 51.8 °F - 44.6 °F 76% 30.18 in 10.0 mi WNW 5.8 mph - N/A   Overcast
2:55 PM 51.4 °F - 43.3 °F 74% 30.18 in 10.0 mi West 3.5 mph - 0.00 in   Mostly Cloudy
3:55 PM 52.5 °F - 42.6 °F 69% 30.19 in 10.0 mi West 4.6 mph - N/A   Overcast
4:55 PM 53.4 °F - 43.0 °F 68% 30.18 in 10.0 mi West 3.5 mph - N/A   Overcast
5:55 PM 50.7 °F - 41.9 °F 72% 30.19 in 10.0 mi WNW 4.6 mph - N/A   Mostly Cloudy
6:55 PM 44.8 °F 42.4 °F 40.1 °F 84% 30.21 in 10.0 mi WNW 4.6 mph - N/A   Clear
7:55 PM 42.4 °F - 39.6 °F 90% 30.22 in 10.0 mi Calm Calm - N/A   Clear
8:55 PM 42.1 °F - 39.9 °F 92% 30.25 in 10.0 mi Calm Calm - N/A   Clear
9:55 PM 37.8 °F 31.8 °F 36.0 °F 93% 30.27 in 10.0 mi NNW 8.1 mph - N/A   Clear
10:55 PM 37.9 °F - 36.3 °F 94% 30.29 in 10.0 mi Calm Calm - N/A   Clear
11:55 PM 36.0 °F - 35.6 °F 99% 30.28 in 10.0 mi Calm Calm - N/A   Clear